Location: Tel Aviv
(32.0670°N, 34.7670°E)
Time: 06:53:05
(UTC+02:00)

Tiros 1 - Visible Passes

Search period start: 29 November 2023 00:00
Search period end: 09 December 2023 00:00
Orbit: 626 x 659 km, 48.4° (Epoch: 28 November)

Date Brightness Start Highest point End Pass type
(mag) Time Alt. Az. Time Alt. Az. Time Alt. Az.
29 Nov 9.4 04:11:22 10° S 04:15:08 24° SE 04:18:56 10° ENE visible
29 Nov 7.4 05:52:19 10° WSW 05:56:59 52° NW 06:01:40 10° NE visible
30 Nov 7.7 04:36:22 21° SSW 04:39:28 59° SE 04:44:11 10° ENE visible
01 Dec 9.8 03:23:45 18° ESE 03:23:45 18° ESE 03:25:45 10° E visible
01 Dec 7.2 05:01:24 25° WSW 05:04:02 60° NW 05:08:46 10° NE visible
02 Dec 8.8 03:48:24 32° E 03:48:24 32° E 03:51:11 10° ENE visible
02 Dec 8.1 05:26:01 17° W 05:28:49 30° NNW 05:33:01 10° NNE visible
03 Dec 8.1 04:12:44 39° NNE 04:12:44 39° NNE 04:15:50 10° NE visible
03 Dec 8.8 05:50:35 10° WNW 05:53:51 18° NNW 05:57:07 10° NNE visible
04 Dec 8.3 04:36:50 30° N 04:36:50 30° N 04:40:09 10° NNE visible
05 Dec 8.7 05:00:48 19° NNW 05:00:48 19° NNW 05:04:15 10° NNE visible
06 Dec 9.9 03:47:00 11° NE 03:47:00 11° NE 03:47:14 10° NE visible
06 Dec 9.2 05:24:35 12° NNW 05:26:00 13° NNW 05:28:18 10° NNE visible
07 Dec 9.6 04:10:42 13° NNE 04:10:42 13° NNE 04:11:21 10° NNE visible
07 Dec 9.4 05:50:07 10° NNW 05:51:21 11° N 05:52:35 10° NNE visible
08 Dec 9.5 04:34:20 12° N 04:34:20 12° N 04:35:23 10° NNE visible
